Grand Rapids, MN

9:34 PM CST on December 08, 2019 (GMT -0600)
Grand Rapids-Itasca County-Newstrom Field

Weather History for KGPZ - July, 2019

Change the Weather History Date:

Friday, July 19, 2019

  Actual Average Record
Temperature  
Mean Temperature 70 °F -  
Max Temperature 80 °F 81 °F 97 °F (1916)
Min Temperature 60 °F 56 °F 37 °F (1927)
Cooling Degree Days 4    
Growing Degree Days 20 (Base 50)    
Moisture  
Dew Point 63 °F    
Average Humidity 79    
Maximum Humidity 100    
Minimum Humidity 60    
Precipitation  
Precipitation 0.00 in - - ()
Sea Level Pressure  
Sea Level Pressure 29.74 in    
Wind  
Wind Speed 4 mph (WNW)    
Max Wind Speed 14 mph    
Max Gust Speed -    
Visibility 9 miles    
Events Rain    
Averages and records for this station are not official NWS values.
T = Trace of Precipitation, MM = Missing Value Source: NWS Daily Summary

Daily Weather History Graph

Daily Weather History Graph

Search for Another Location

Airport or City:

Astronomy

Jul. 19, 2019 Rise Set
Actual Time 5:37 AM CDT 9:02 PM CDT
Civil Twilight 4:59 AM CDT 9:40 PM CDT
Nautical Twilight 4:09 AM CDT 10:29 PM CDT
Astronomical Twilight 3:04 AM CDT 11:34 PM CDT
Moon 10:52 PM CDT (7/19) 8:10 AM CDT (7/19)
Length of Visible Light 16h 40m
Length of Day
15h 25m
Waning Gibbous, 93% of the Moon is Illuminated
Jul 19
Waning Gibbous
Jul 24
Last Quarter
Jul 31
New
Aug 7
First Quarter
Aug 15
Full

Hourly Weather History & Observations

Time (CDT) Temp. Dew Point Humidity Pressure Visibility Wind Dir Wind Speed Gust Speed Precip Events Conditions
12:56 AM 72.0 °F 61.0 °F 68% 29.67 in 10.0 mi West 3.5 mph - N/A   Clear
1:56 AM 72.0 °F 60.1 °F 66% 29.68 in 10.0 mi WSW 4.6 mph - N/A   Partly Cloudy
2:56 AM 72.0 °F 60.1 °F 66% 29.69 in 10.0 mi WSW 4.6 mph - N/A   Partly Cloudy
3:56 AM 66.0 °F 60.1 °F 81% 29.70 in 10.0 mi WSW 3.5 mph - N/A   Clear
4:56 AM 61.0 °F 59.0 °F 93% 29.71 in 10.0 mi Calm Calm - N/A   Clear
5:56 AM 60.1 °F 59.0 °F 96% 29.70 in 10.0 mi SSE 4.6 mph - N/A   Clear
6:56 AM 62.1 °F 60.1 °F 93% 29.72 in 10.0 mi Calm Calm - N/A   Clear
7:56 AM 69.1 °F 62.1 °F 78% 29.75 in 10.0 mi South 4.6 mph - N/A   Clear
8:56 AM 70.0 °F 61.0 °F 73% 29.74 in 10.0 mi South 5.8 mph - N/A   Clear
9:56 AM 71.1 °F 63.0 °F 75% 29.75 in 10.0 mi Calm Calm - N/A   Clear
10:56 AM 70.0 °F 64.0 °F 81% 29.80 in 10.0 mi Calm Calm - 0.00 in Rain Light Rain
11:56 AM 70.0 °F 64.9 °F 84% 29.77 in 10.0 mi SSE 5.8 mph - 0.00 in   Mostly Cloudy
12:56 PM 75.0 °F 64.9 °F 71% 29.73 in 10.0 mi South 6.9 mph - N/A   Clear
1:56 PM 78.1 °F 64.9 °F 64% 29.73 in 10.0 mi NNW 3.5 mph - N/A   Scattered Clouds
2:56 PM 79.0 °F 64.0 °F 60% 29.71 in 10.0 mi North 13.8 mph - N/A   Partly Cloudy
3:56 PM 77.0 °F 64.0 °F 64% 29.75 in 10.0 mi North 6.9 mph - N/A   Scattered Clouds
4:56 PM 77.0 °F 64.0 °F 64% 29.73 in 10.0 mi North 6.9 mph - N/A   Partly Cloudy
5:56 PM 75.9 °F 63.0 °F 64% 29.72 in 10.0 mi NNE 4.6 mph - N/A   Overcast
6:56 PM 73.9 °F 66.0 °F 76% 29.75 in 10.0 mi North 4.6 mph - N/A   Overcast
7:56 PM 73.9 °F 64.9 °F 73% 29.74 in 10.0 mi North 3.5 mph - N/A   Scattered Clouds
8:56 PM 68.0 °F 64.9 °F 90% 29.74 in 10.0 mi Calm Calm - N/A   Clear
9:56 PM 64.0 °F 63.0 °F 96% 29.78 in 10.0 mi Calm Calm - N/A   Clear
10:18 PM 64.4 °F 62.6 °F 94% 29.79 in 1.8 mi Calm Calm - N/A   Scattered Clouds
10:27 PM 64.4 °F 62.6 °F 94% 29.80 in 3.0 mi Calm Calm - N/A   Partly Cloudy
10:56 PM 63.0 °F 63.0 °F 100% 29.81 in 10.0 mi Calm Calm - N/A   Clear
11:56 PM 64.9 °F 63.0 °F 93% 29.81 in 10.0 mi Calm Calm - N/A   Clear